Meteo Giornale » Osservazioni meteo Gibilterra » Gibilterra
ore: 19:50 - Osservazioni Meteo Gibilterra
Lat. 36° 9' N Lon. 5° 21' W Alt. 5 metri s.l.m.
26 °C
Poco Nuvoloso
Temp. 24 Ore
20 °C
27 °C
Est/Sud-Est
20.3 Km/h
Dew point 23 °C
Umidità 83 %
Visibilità 10 Km
Il sole sorge alle ore 07:53
Il sole tramonta alle ore 20:49
| Data e Ora | Cielo e Fenomeni | T °C | DP °C | Um. % | Pres. hPa | Vis. km | Vento km/h | |
|---|---|---|---|---|---|---|---|---|
| Oggi h: 19:50 | Poco Nuvoloso | 26 | 23 | 83 | 1017 | 10 | E/SE 20.3 | |
| Oggi h: 19:20 | Poco Nuvoloso | 26 | 23 | 83 | 1016 | 10 | E/SE 22.2 | |
| Oggi h: 18:50 | Nuvoloso | 27 | 22 | 74 | 1016 | 10 | E 25.9 | |
| Oggi h: 18:20 | Nuvoloso | 27 | 23 | 78 | 1017 | 10 | E/SE 24 | |
| Oggi h: 17:50 | Nuvoloso | 27 | 21 | 69 | 1016 | 10 | E/SE 22.2 | |
| Oggi h: 17:20 | Nuvoloso | 26 | 21 | 73 | 1016 | 10 | E 20.3 | |
| Oggi h: 16:50 | Nuvoloso | 25 | 21 | 78 | 1017 | 10 | E 18.5 | |
| Oggi h: 16:20 | Molto Nuvoloso | 26 | 21 | 73 | 1017 | 10 | E 22.2 | |
| Oggi h: 15:50 | Molto Nuvoloso | 26 | 21 | 73 | 1017 | 10 | E 22.2 | |
| Oggi h: 15:20 | Molto Nuvoloso | 25 | 21 | 78 | 1018 | 10 | E 20.3 | |
| Oggi h: 14:50 | Molto Nuvoloso | 24 | 20 | 78 | 1018 | 10 | E 24 | |
| Oggi h: 14:20 | Molto Nuvoloso | 23 | 19 | 78 | 1017 | 10 | E 22.2 | |
| Oggi h: 13:50 | Molto Nuvoloso | 23 | 20 | 83 | 1018 | 10 | E 24 | |
| Oggi h: 13:20 | Nuvoloso | 23 | 19 | 78 | 1018 | 10 | E 24 | |
| Oggi h: 12:50 | Molto Nuvoloso | 22 | 19 | 83 | 1018 | 10 | E 22.2 | |
| Oggi h: 12:20 | Molto Nuvoloso | 22 | 18 | 78 | 1018 | 10 | E 20.3 | |
| Oggi h: 11:50 | Molto Nuvoloso | 22 | 17 | 73 | 1018 | 10 | E 16.7 | |
| Oggi h: 11:20 | Molto Nuvoloso | 21 | 16 | 73 | 1018 | 10 | E 14.8 | |
| Oggi h: 10:50 | Molto Nuvoloso | 21 | 17 | 77 | 1018 | 10 | E 11.1 | |
| Oggi h: 10:20 | Molto Nuvoloso | 21 | 17 | 77 | 1018 | 10 | E 11.1 | |
| Oggi h: 09:50 | Molto Nuvoloso | 22 | 17 | 73 | 1018 | 10 | E/SE 7.4 | |
| Oggi h: 09:20 | Nuvoloso | 21 | 17 | 77 | 1017 | 10 | E 11.1 | |
| Oggi h: 08:50 | Nuvoloso | 21 | 17 | 77 | 1017 | 10 | E 7.4 | |
| Oggi h: 08:20 | Nuvoloso | 21 | 18 | 82 | 1017 | 10 | E 7.4 | |
| Oggi h: 07:50 | Nuvoloso | 22 | 19 | 83 | 1016 | 10 | N 5.5 | |
| Oggi h: 07:20 | Coperto | 21 | 20 | 94 | 1017 | 10 | N 5.5 | |
| Oggi h: 06:50 | Foschia | 20 | 20 | 100 | 1016 | 8 | N 5.5 | |
| Oggi h: 06:20 | Molto Nuvoloso | 20 | 20 | 100 | 1016 | 10 | E/NE 7.4 | |
| Oggi h: 05:50 | Nebbia nelle vicinanze | 21 | 20 | 94 | 1016 | 10 | NE 9.3 | |
| Oggi h: 05:20 | Pioggia | 20 | 20 | 100 | 1016 | 0.2 | N/NE 7.4 | |
| Oggi h: 04:50 | Coperto | 20 | 20 | 100 | 1017 | 0.35 | NE 7.4 | |
| Oggi h: 04:20 | Nebbia | 20 | 20 | 100 | 1017 | 0.2 | E/NE 7.4 | |
| Oggi h: 03:50 | Pioggia | 21 | 20 | 94 | 1017 | 0.1 | E 11.1 | |
| Oggi h: 03:20 | Foschia | 21 | 20 | 94 | 1018 | 10 | E/NE 11.1 | |
| Oggi h: 02:50 | Molto Nuvoloso | 22 | 21 | 94 | 1018 | 10 | N/NE 7.4 | |
| Oggi h: 02:20 | Coperto | 22 | 21 | 94 | 1018 | 10 | N 5.5 | |
| Oggi h: 01:20 | Pioggia | 21 | 20 | 94 | 1018 | 7 | E 9.3 | |
| Oggi h: 00:50 | Pioviggine | 21 | 20 | 94 | 1018 | 5 | NE 9.3 | |
| Oggi h: 00:20 | Pioggia | 21 | 20 | 94 | 1018 | 10 | E/NE 11.1 | |
| Ieri h: 23:50 | Coperto | 22 | 20 | 88 | 1018 | 10 | E/NE 9.3 | |
| Ieri h: 23:20 | Molto Nuvoloso | 23 | 21 | 88 | 1018 | 10 | E 13 | |
| Ieri h: 22:50 | Coperto | 23 | 21 | 88 | 1017 | 10 | E 11.1 | |
| Ieri h: 22:20 | Coperto | 23 | 21 | 88 | 1017 | 10 | N 5.5 | |
| Ieri h: 21:50 | Coperto | 22 | 20 | 88 | 1017 | 10 | E/SE 11.1 | |
| Ieri h: 21:20 | Coperto | 22 | 20 | 88 | 1016 | 10 | E/SE 11.1 | |
| Ieri h: 20:50 | Nuvoloso | 23 | 21 | 88 | 1016 | 2 | E/NE 9.3 | |



